Location: Bourguignon
(49.5441°N, 3.1585°E)
Time: 10:53:54
(UTC+00:00)

CZ-4B R/B - Pass Details

Date: 15 May 2026
Orbit: 807 x 881 km, 98.9° (Epoch: 6 June)

Event Time Altitude Azimuth Distance (km) Brightness Sun altitude
Exits shadow 20:05:20 - 166° (SSE) 3,461 5.9 -6.2°
Reaches altitude 10° 20:07:42 10° 167° (SSE) 2,529 5.2 -6.5°
Maximum altitude 20:13:22 81° 255° (WSW) 889 3.4 -7.2°
Drops below altitude 10° 20:18:59 10° 343° (NNW) 2,515 6.7 -7.8°
Sets 20:21:21 0° 345° (NNW) 3,447 7.5 -8.1°
